{"data":{"norad_id":56729,"epoch":"2026-09-19T05:18:53.714592Z","epoch_age_seconds":125985,"freshness":"FRESH","line1":"1 56729U 23068V   26262.22145503  .00000657  00000+0  83406-4 0  9990","line2":"2 56729  86.6593 346.0946 0002539  93.0696 267.0816 14.80044268180277","mean_motion":14.80044268,"eccentricity":0.0002539,"inclination_deg":86.6593,"raan_deg":346.0946,"arg_perigee_deg":93.0696,"mean_anomaly_deg":267.0816,"bstar":8.3406e-5,"rev_number":18027,"period_min":97.294387143291,"perigee_km":627.40524677174,"apogee_km":630.96356458154,"semimajor_km":7007.3214056766,"source":"CELESTRAK","updated_at":"2026-09-20T09:00:36.357825Z"}}